Regional Weather Roundup
Issued by NWS Cleveland, OH

Home | Current Version | Previous Version | Graphics & Text | Print | Product List | Glossary On
Versions: 1 2 3 4 5 6 7 8 9 10 11 12 13 14 15 16 17 18 19 20 21 22 23 24 25 26 27 28 29 30 31 32 33 34 35 36 37 38 39 40 41 42 43 44 45 46 47 48 49 50
000
ASUS41 KCLE 240210
RWRCLE
OHIO REGIONAL WEATHER ROUNDUP
NATIONAL WEATHER SERVICE CLEVELAND, OH
1000 PM EDT MON APR 23 2018

NOTE: "FAIR" INDICATES FEW OR NO CLOUDS BELOW 12,000 FEET WITH NO
SIGNIFICANT WEATHER AND/OR OBSTRUCTIONS TO VISIBILITY.

OHZ001>008-015>018-024>027-034-035-043-044-240300-
   NORTHWEST OHIO

CITY           SKY/WX    TMP DP  RH WIND       PRES   REMARKS
DEFIANCE       LGT RAIN  55  46  71 SE9G16    30.17R
FINDLAY        LGT RAIN  58  42  55 SE20G32   30.16R
TOLEDO EXPRESS CLOUDY    58  46  64 S5        30.17S
TOLEDO EXEC    CLOUDY    57  47  69 CALM      30.18R
LIMA           CLOUDY    53  46  77 SE13      30.14S
$$

OHZ009>014-019>023-028>033-038-089-240300-
   NORTHEAST OHIO

CITY           SKY/WX    TMP DP  RH WIND       PRES   REMARKS
CLE-HOPKINS    LGT RAIN  56  47  71 SW6       30.21R
CLE-LAKEFRONT  MOCLDY    50  40  68 SW5       30.19R
CUY CO. ARPT   MOCLDY    57  45  62 W7        30.21R
LORAIN-ELYRIA  LGT RAIN  54  44  69 W6        30.19S
ASHTABULA      MOCLDY    63  36  36 S9        30.20R
AKRON-CANTON   CLOUDY    57  39  51 SW6       30.21R
WOOSTER        CLOUDY    54  43  66 S8        30.20S
MANSFIELD      CLOUDY    54  42  64 S14       30.18S
YOUNGSTOWN     CLOUDY    64  37  36 SE9       30.20R
$$

OHZ042-051>053-060>062-070>072-077>081-240300-
  SOUTHWEST OHIO

CITY           SKY/WX    TMP DP  RH WIND       PRES   REMARKS
CINC-COVINGTON CLOUDY    53  49  86 E13       30.05F
CINC-LUNKEN    LGT RAIN  54  51  90 NE7       30.07F
HAMILTON       LGT RAIN  53  50  89 E9        30.09S
DAYTON         LGT RAIN  51  50  96 E15       30.11F
WRIGHT-PAT AFB CLOUDY    53  47  83 E15       30.10
DAYTON GENERAL CLOUDY    53  48  83 E10G18    30.08F
WILMINGTON     LGT RAIN  51  49  92 E16G24    30.10S
$$

OHZ036-037-039>041-045>050-054>059-063>069-073>076-082>088-240300-
  CENTRAL AND SOUTHEAST OHIO

CITY           SKY/WX    TMP DP  RH WIND       PRES   REMARKS
COLUMBUS       LGT RAIN  53  47  79 E10       30.17S
OSU AIRPORT    LGT RAIN  52  47  83 E14       30.16F
BOLTON FIELD   LGT RAIN  51  47  87 E12       30.16F
RICKENBACK AFB CLOUDY    51  48  89 E8        30.15F
NEWARK         LGT RAIN  54  46  74 E3        30.18S
MARION         CLOUDY    56  43  61 SE20      30.18S
LANCASTER      CLOUDY    53  47  79 E15       30.16F
ZANESVILLE     CLOUDY    56  43  61 SE9       30.18F
NEW PHILLY     NOT AVBL
$$




USA.gov is the U.S. government's official web portal to all federal, state and local government web resources and services.